Starlink 33930

operational
NORAD ID: 63776 Int'l Des: 2025-091 Owner: SPXS Country: US Constellation: starlink
LEOCIRCULAR

Starlink 33930について

説明を読み込み中...

リアルタイム位置

3D地球を読み込み中...

次回通過

高度履歴

Altitude vs Time

uPlot chart will show altitude changes over time

軌道要素

1 63776U 25091B 25350.81232762 .00017826 00000-0 65505-3 0 9990
2 63776 42.9998 160.8797 0002253 241.2042 118.8584 15.27614257 36225
Epoch: Dec 16, 2025 • Age: 13 hours

現在のステータス

高度 483.0 km
速度 7.63 km/s
衛星直下点 12.17°N, 36.92°W
打ち上げ日 May 2, 2025
運用期間 0.6 years
タイプ internet

技術仕様

分類 Payload
質量 575.00 kg
乾燥質量 530.00 kg
総質量 575.00 kg
長さ 0.30 m
直径 4.10 m
スパン 29.00 m
形状 Box + pan
製造者 SPXS
バスタイプ Starlink V2MO
フェーズステータス In Orbit
所有者/国 SPXS/US

大規模コンステレーション

Loading constellations...